Location: Bogis-Bossey
(46.3500°N, 6.1667°E)
Time: 00:25:06
(UTC+00:00)

USA 238 DEB - Pass Details

Date: 03 March 2024
Orbit: 948 x 1263 km, 63.4° (Epoch: 09 April)

Event Time Altitude Azimuth Distance (km) Brightness Sun altitude
Exits shadow 03:10:56 75° 356° (N) 1,055 3.6 -31.1°
Drops below altitude 10° 03:17:21 10° 38° (NE) 2,914 6.7 -30.1°
Sets 03:20:07 0° 40° (NE) 3,921 7.6 -29.6°
